[[{"header":{"parameterUnit":"m.s-1","parameterCategory":2,"la1":30.2991,"la2":30.254,"lo1":-89.0895,"lo2":-89.0444,"dy":0.0017,"dx":0.0017,"nx":28,"ny":28,"refTime":"2023-09-28T21:00:00:Z","depth":"0","parameterNumber":2,"parameterNumberName":"U-component_of_CURRENTS"},"data":[0,0,0,0,0,0,0,0,0,0,0,0,0,0,0,0,0,0,0,0,0,0,0,0,0,0,0,0,0,0,0,0,0,0,0,0,0,0,0,0,0,0,0,0,0,0,0,0,0,0,0,0,0,0,0,0,0,0,0.1705,0.1705,0,0.1704,0.1704,0.1704,0.169,0.169,0.1689,0.1689,0.1659,0.1658,0.1657,0,0,0,0,0,0,0,0,0,0,0,0,0,0.1714,0.1713,0.1705,0.1705,0.1705,0.1704,0.1704,0.1704,0.169,0.169,0.1689,0.1689,0.1659,0.1658,0.1657,0,0,0,0,0,0,0,0,0,0,0,0,0,0.171,0.1713,0.1705,0.1699,0.1699,0.1704,0.1704,0.1704,0.169,0.169,0.1689,0.1689,0.1659,0.1658,0.1657,0.1659,0,0,0.1655,0.1654,0,0,0,0,0,0,0,0,0.171,0.1709,0.17,0.1699,0.1699,0.1698,0.1696,0.1688,0.169,0.1692,0.1689,0.1689,0.167,0.1668,0.1667,0.1657,0.1656,0.1654,0.1654,0.1653,0.1653,0,0,0,0,0,0,0,0.171,0.1709,0.1703,0.17,0.1699,0.1703,0.1702,0.1694,0.1681,0.1692,0.1691,0.1693,0.1669,0.1668,0.1667,0.1656,0.1654,0.1654,0.1653,0.1653,0.1654,0.1655,0,0,0,0,0,0,0.1712,0.171,0.1703,0.1703,0.1705,0.1703,0.1702,0.1697,0.1682,0.168,0.1693,0.1692,0.167,0.1668,0.1665,0.1684,0.1654,0.1653,0.1652,0.1654,0.1654,0.1655,0,0,0,0,0,0,0.1712,0.1712,0.1703,0.1708,0.1707,0.1703,0.1699,0.1698,0.1699,0.1684,0.1681,0.1696,0.167,0.1667,0.1664,0.1682,0.1652,0.1651,0.1653,0.1654,0.1655,0.171,0,0,0,0,0,0,0.1713,0.1711,0.1711,0.1708,0.1707,0.1711,0.1699,0.1698,0.1701,0.17,0.1686,0.1682,0.1669,0.1666,0.1663,0.168,0.1651,0.1652,0.1653,0.1654,0.1707,0.1712,0.1717,0,0,0,0,0,0.1713,0.1712,0.1711,0.1711,0.1706,0.1711,0.1711,0.1707,0.1702,0.1706,0.1697,0.1683,0.1671,0.1666,0.1663,0.1679,0.1652,0.1653,0.1654,0.1705,0.1711,0.1716,0,0,0,0,0,0,0.1717,0.1711,0.171,0.1707,0.1712,0.1709,0.1712,0.1711,0.1708,0.1705,0.1689,0.1686,0.1692,0.1676,0.1671,0.1682,0.1659,0.166,0.1699,0.1705,0.1709,0.1702,0.165,0,0,0,0,0,0.1718,0.1714,0.1715,0.1714,0.1718,0.1717,0.1719,0.1718,0.1715,0.1713,0.1704,0.1696,0.1696,0.1692,0.1686,0.169,0.1685,0.1699,0.1704,0.1708,0.17,0.17,0.1705,0.1659,0.1659,0.1659,0,0,0.1719,0.1716,0.1713,0.1715,0.1717,0.1727,0.1717,0.1723,0.1735,0.171,0.172,0.1713,0.1701,0.171,0.1711,0.1697,0.1726,0.171,0.1714,0.1703,0.1702,0.1707,0.171,0.166,0.166,0.166,0,0,0.172,0.1717,0.1716,0.1724,0.1731,0.1734,0.1739,0.1742,0.1747,0.1756,0.1746,0.1748,0.1742,0.1741,0.1738,0.1764,0.1753,0.1765,0.1781,0.1782,0.1786,0.1789,0.1822,0.1827,0.1764,0.1765,0.1765,0,0.1722,0.1721,0.1719,0.1727,0.1738,0.174,0.1753,0.1761,0.1765,0.1769,0.1764,0.1762,0.1758,0.1768,0.178,0.1776,0.1781,0.1763,0.1789,0.1792,0.1794,0.1826,0.1831,0.1767,0.1767,0.1767,0.1766,0,0.1724,0.173,0.1733,0.1743,0.1756,0.1767,0.1783,0.1797,0.1803,0.1804,0.1816,0.1809,0.1805,0.1812,0.1804,0.182,0.1823,0.1799,0.1776,0.1802,0.1835,0.1839,0.1771,0.177,0.177,0.1769,0,0,0.1712,0.173,0.1731,0.1741,0.1768,0.1775,0.1807,0.1827,0.1835,0.1844,0.1855,0.1864,0.1852,0.1848,0.1843,0.1843,0.1883,0.1829,0.1828,0.1865,0.1909,0.1955,0.1965,0.1861,0.1861,0.1861,0.1939,0,0.1716,0.1732,0.1744,0.1766,0.178,0.1803,0.1825,0.1845,0.1859,0.1869,0.1874,0.1876,0.187,0.1868,0.1872,0.1875,0.189,0.1865,0.1874,0.1875,0.1915,0.1969,0.1868,0.1932,0.1943,0.1944,0.1944,0,0.1714,0.1728,0.1748,0.1776,0.1782,0.1796,0.1831,0.1849,0.1873,0.1883,0.1893,0.1891,0.1913,0.1891,0.1919,0.1903,0.1911,0.1911,0.1914,0.1934,0.1928,0.19,0.1939,0.1871,0.1951,0.195,0.195,0,0.1703,0.173,0.1745,0.1756,0.1787,0.1802,0.182,0.1847,0.1862,0.1888,0.1897,0.1916,0.1927,0.1935,0.1965,0.1937,0.1996,0.1956,0.201,0.2015,0.1918,0.1914,0.1888,0.1969,0.1969,0.1969,0.1969,0,0.1701,0.1713,0.1736,0.1744,0.1756,0.1786,0.1799,0.1821,0.1852,0.1871,0.1893,0.1926,0.1932,0.1973,0.1985,0.2039,0.2021,0.203,0.2037,0.194,0.1937,0.1863,0.1816,0.1972,0.1971,0.1971,0.197,0,0.1682,0.17,0.1712,0.174,0.1747,0.1752,0.1786,0.1796,0.1829,0.1862,0.1875,0.1938,0.2013,0.2041,0.2076,0.2074,0.2045,0.2129,0.2041,0.2038,0.2016,0.1975,0.1883,0.1827,0.2194,0.2195,0.2197,0,0.167,0.1674,0.1694,0.1698,0.1707,0.1723,0.1734,0.1777,0.1796,0.1883,0.19,0.1991,0.2051,0.2149,0.2175,0.2226,0.2118,0.2149,0.2072,0.2022,0.1981,0.1874,0.1825,0.1975,0.1974,0.1974,0.1973,0,0.1645,0.1649,0.1657,0.1661,0.167,0.1683,0.1709,0.1722,0.1784,0.1824,0.1908,0.1968,0.2093,0.2117,0.2198,0.2207,0.2022,0.2144,0.2081,0.1811,0.1696,0.1644,0.1947,0.1969,0.1969,0.197,0.197,0.197,0.1618,0.1611,0.1617,0.1616,0.1628,0.1636,0.1628,0.1673,0.1706,0.1761,0.1875,0.1933,0.2006,0.2119,0.2134,0.2074,0.2042,0.1967,0.1929,0.1833,0.1745,0.2081,0.212,0.2121,0.2122,0.2123,0.2124,0,0.1574,0.1574,0.1574,0.1569,0.1559,0.1585,0.16,0.1587,0.1608,0.1704,0.1772,0.1833,0.1863,0.1914,0.1913,0.184,0.1716,0.1766,0.1545,0.1514,0.18,0.1757,0.1731,0.1731,0.1731,0.1731,0.1731,0.1731,0.1553,0.1531,0.1528,0.1497,0.1496,0.1462,0.1457,0.1457,0.1495,0.1532,0.1566,0.1627,0.1685,0.1683,0.1624,0.1593,0.144,0.1362,0.1374,0.1531,0.1545,0.1557,0.1506,0.1428,0.1427,0.0995,0.0992,0.0989]},{"header":{"parameterUnit":"m.s-1","parameterCategory":2,"la1":30.2991,"la2":30.254,"lo1":-89.0895,"lo2":-89.0444,"dy":0.0017,"dx":0.0017,"nx":28,"ny":28,"refTime":"2023-09-28T21:00:00:Z","depth":"0","parameterNumber":3,"parameterNumberName":"V-component_of_CURRENTS"},"data":[0,0,0,0,0,0,0,0,0,0,0,0,0,0,0,0,0,0,0,0,0,0,0,0,0,0,0,0,0,0,0,0,0,0,0,0,0,0,0,0,0,0,0,0,0,0,0,0,0,0,0,0,0,0,0,0,0,0,0.011,0.011,0,0.0069,0.0068,0.0068,0.0038,0.0038,0.0038,0.0038,-0.0013,-0.0015,-0.0016,0,0,0,0,0,0,0,0,0,0,0,0,0,0.0126,0.0126,0.011,0.011,0.0109,0.0069,0.0068,0.0067,0.0038,0.0038,0.0038,0.0038,-0.0013,-0.0014,-0.0016,0,0,0,0,0,0,0,0,0,0,0,0,0,0.0104,0.0126,0.011,0.0091,0.0089,0.0069,0.0068,0.0067,0.0039,0.0038,0.0038,0.0038,-0.0012,-0.0014,-0.0016,-0.0026,0,0,-0.0022,-0.0023,0,0,0,0,0,0,0,0,0.0105,0.0103,0.0094,0.0093,0.009,0.006,0.0055,0.0036,0.0039,0.0056,0.0038,0.0038,0.0011,0.0007,-0.0002,-0.0028,-0.003,-0.0022,-0.0024,-0.0024,-0.0025,0,0,0,0,0,0,0,0.0107,0.0105,0.0092,0.0094,0.0092,0.0072,0.0069,0.0051,0.0034,0.0055,0.0053,0.0051,0.001,-0.0,-0.0004,-0.0031,-0.0022,-0.0024,-0.0025,-0.0026,-0.0081,-0.0081,0,0,0,0,0,0,0.0117,0.0106,0.0093,0.0091,0.0099,0.0072,0.0068,0.0069,0.0034,0.0029,0.0051,0.005,0.0003,-0.0001,-0.0006,-0.0035,-0.0024,-0.0026,-0.0027,-0.0081,-0.0081,-0.0081,0,0,0,0,0,0,0.0118,0.0117,0.0095,0.0099,0.0095,0.0072,0.0072,0.0068,0.0058,0.0031,0.0026,0.0046,0.0003,-0.0003,-0.0021,-0.0036,-0.0027,-0.0029,-0.008,-0.0081,-0.0081,-0.0083,0,0,0,0,0,0,0.0119,0.0117,0.0119,0.01,0.0095,0.0084,0.0073,0.0067,0.0058,0.0056,0.0026,0.0021,0.0002,-0.0018,-0.0023,-0.0039,-0.003,-0.008,-0.008,-0.0081,-0.0083,-0.0083,-0.0084,0,0,0,0,0,0.0119,0.0122,0.0119,0.0117,0.0099,0.0084,0.0079,0.0061,0.0058,0.0053,0.0034,0.0022,-0.0025,-0.002,-0.0025,-0.0042,-0.008,-0.008,-0.0081,-0.0082,-0.0083,-0.0084,0,0,0,0,0,0,0.0126,0.0119,0.0115,0.0115,0.0102,0.0079,0.0075,0.0064,0.0045,0.0046,0.002,0.0014,-0.0011,-0.0021,-0.0014,-0.0059,-0.0055,-0.0057,-0.0054,-0.0056,-0.0056,-0.0044,-0.0032,0,0,0,0,0,0.0131,0.0133,0.0119,0.0118,0.0115,0.0096,0.0088,0.0078,0.006,0.0052,0.0031,0.0009,-0.0018,-0.0031,-0.0053,-0.0073,-0.0078,-0.0088,-0.0088,-0.0089,-0.0082,-0.0112,-0.0115,-0.0083,-0.0083,-0.0083,0,0,0.0134,0.013,0.0131,0.012,0.011,0.0104,0.0091,0.0082,0.0073,0.005,0.0031,0.0006,-0.0023,-0.0051,-0.0063,-0.0062,-0.0098,-0.009,-0.009,-0.0083,-0.0113,-0.0116,-0.0119,-0.0084,-0.0084,-0.0084,0,0,0.0141,0.0138,0.0143,0.0134,0.0123,0.0111,0.0112,0.0092,0.0079,0.0061,0.0036,0.0008,-0.0025,-0.0055,-0.0073,-0.0088,-0.0102,-0.0099,-0.0096,-0.0125,-0.0128,-0.0131,-0.013,-0.0133,-0.0101,-0.0101,-0.0101,0,0.0144,0.0149,0.014,0.014,0.0135,0.0118,0.0118,0.01,0.0075,0.0062,0.0059,-0.0003,-0.0027,-0.0071,-0.008,-0.0091,-0.0099,-0.0091,-0.0127,-0.0129,-0.0132,-0.0131,-0.0134,-0.0101,-0.0101,-0.0101,-0.0101,0,0.0154,0.0156,0.0158,0.0154,0.0147,0.0144,0.0124,0.0111,0.0097,0.0075,0.0036,-0.0001,-0.0035,-0.0057,-0.0074,-0.0113,-0.0108,-0.0124,-0.0124,-0.0135,-0.0133,-0.0136,-0.0101,-0.0101,-0.0101,-0.0101,0,0,0.0164,0.0166,0.0166,0.0172,0.0156,0.0154,0.0137,0.0115,0.0109,0.007,0.0053,-0.0008,-0.0028,-0.0049,-0.0083,-0.0113,-0.0139,-0.0125,-0.0127,-0.0122,-0.0185,-0.0146,-0.0145,-0.0167,-0.0168,-0.0169,-0.0171,0,0.0175,0.0188,0.0179,0.0187,0.0194,0.0172,0.0159,0.0136,0.0114,0.0093,0.0039,0.0014,-0.0027,-0.0039,-0.0082,-0.0119,-0.0148,-0.0135,-0.0175,-0.0175,-0.0139,-0.0148,-0.0098,-0.0093,-0.0174,-0.0174,-0.0175,0,0.0186,0.0196,0.021,0.0214,0.0214,0.0211,0.0198,0.0185,0.0143,0.0126,0.0081,0.0048,-0.0003,-0.0029,-0.0109,-0.0099,-0.014,-0.0173,-0.0174,-0.0138,-0.0143,-0.0098,-0.0096,-0.016,-0.0179,-0.0179,-0.0178,0,0.021,0.0217,0.0234,0.0234,0.0232,0.023,0.0224,0.0193,0.0194,0.0152,0.0154,0.0077,0.0066,-0.0015,-0.0075,-0.0096,-0.0146,-0.0183,-0.0188,-0.0185,-0.0148,-0.014,-0.021,-0.0242,-0.0242,-0.0242,-0.0242,0,0.0226,0.0239,0.0249,0.0259,0.0279,0.0262,0.0273,0.0253,0.0239,0.0258,0.0178,0.0192,0.0068,0.0029,-0.0054,-0.011,-0.0129,-0.018,-0.0187,-0.0145,-0.0137,-0.0195,-0.0246,-0.0242,-0.0242,-0.0242,-0.0242,0,0.0246,0.0252,0.0276,0.0286,0.0293,0.0306,0.0321,0.0331,0.0309,0.0337,0.0333,0.0285,0.0245,0.0134,0.0032,-0.0053,-0.0152,-0.0147,-0.0069,-0.0067,-0.0143,-0.0194,-0.024,-0.0278,-0.0162,-0.0161,-0.016,0,0.0255,0.0272,0.0305,0.0326,0.0332,0.0353,0.0373,0.0367,0.0391,0.0413,0.0439,0.0413,0.0421,0.0286,0.014,0.0011,-0.0086,-0.0046,-0.0089,-0.0132,-0.0196,-0.0219,-0.0251,-0.0037,-0.0035,-0.0034,-0.0033,0,0.0273,0.0288,0.0311,0.0361,0.0392,0.043,0.0463,0.0502,0.0517,0.0563,0.0638,0.0654,0.0543,0.0456,0.0266,0.0156,-0.0072,-0.0021,-0.01,-0.0128,-0.0124,-0.0167,-0.0034,-0.0021,-0.0022,-0.0023,-0.0023,-0.0024,0.0285,0.031,0.0348,0.0395,0.044,0.0505,0.0551,0.0613,0.0696,0.08,0.0817,0.0888,0.0724,0.0486,0.0322,0.0062,0.0028,-0.0018,-0.0081,-0.0103,-0.0131,0.005,0.0073,0.0072,0.0072,0.0071,0.0071,0,0.0298,0.0332,0.0379,0.0443,0.0503,0.052,0.0611,0.0677,0.0808,0.0943,0.1045,0.1045,0.0843,0.0577,0.0223,0.0035,-0.0059,-0.007,-0.0112,-0.015,-0.0012,0.0002,0.0053,0.0053,0.0053,0.0053,0.0053,0.0053,0.0304,0.0353,0.0385,0.0484,0.0535,0.0625,0.0687,0.0809,0.0921,0.1112,0.1207,0.1254,0.1065,0.0483,0.0056,-0.0069,-0.0217,-0.0199,-0.031,-0.0234,-0.0234,-0.0235,-0.0235,-0.0234,-0.0235,-0.0399,-0.0401,-0.0403]}],[{"header":{"parameterUnit":"m.s-1","parameterCategory":2,"la1":30.2991,"la2":30.254,"lo1":-89.0895,"lo2":-89.0444,"dy":0.0017,"dx":0.0017,"nx":28,"ny":28,"refTime":"2023-09-28T21:00:00:Z","depth":"2","parameterNumber":2,"parameterNumberName":"U-component_of_CURRENTS"},"data":[0,0,0,0,0,0,0,0,0,0,0,0,0,0,0,0,0,0,0,0,0,0,0,0,0,0,0,0,0,0,0,0,0,0,0,0,0,0,0,0,0,0,0,0,0,0,0,0,0,0,0,0,0,0,0,0,0,0,0.1578,0.1579,0,0.1584,0.1584,0.1584,0.158,0.158,0.1581,0.1581,0.1583,0.1583,0.1582,0,0,0,0,0,0,0,0,0,0,0,0,0,0.1573,0.1572,0.1578,0.1579,0.1579,0.1584,0.1584,0.1584,0.158,0.158,0.1581,0.1581,0.1583,0.1583,0.1582,0,0,0,0,0,0,0,0,0,0,0,0,0,0.1573,0.1572,0.1578,0.158,0.1581,0.1584,0.1584,0.1584,0.158,0.158,0.1581,0.1581,0.1583,0.1583,0.1582,0.1577,0,0,0.1582,0.1582,0,0,0,0,0,0,0,0,0.1573,0.1573,0.158,0.158,0.1581,0.1585,0.1583,0.1583,0.158,0.1577,0.1581,0.1581,0.1585,0.1585,0.158,0.1577,0.1577,0.1582,0.1582,0.1582,0.1582,0,0,0,0,0,0,0,0.1573,0.1573,0.1577,0.158,0.1581,0.1585,0.1584,0.1583,0.1577,0.1577,0.1578,0.1584,0.1585,0.1581,0.1581,0.1577,0.1582,0.1582,0.1582,0.1582,0.1609,0.1609,0,0,0,0,0,0,0.1579,0.1572,0.1577,0.1578,0.1582,0.1585,0.1584,0.158,0.1577,0.1578,0.1584,0.1584,0.1581,0.1581,0.1581,0.1629,0.1582,0.1582,0.1582,0.1608,0.1609,0.161,0,0,0,0,0,0,0.1578,0.1578,0.1577,0.1579,0.1579,0.1585,0.158,0.1581,0.1587,0.1583,0.1583,0.1592,0.1581,0.1581,0.1583,0.1627,0.1582,0.1582,0.1607,0.1608,0.1609,0.1691,0,0,0,0,0,0,0.1578,0.1578,0.1581,0.1579,0.1579,0.1592,0.1581,0.1581,0.1592,0.1592,0.1589,0.1589,0.1581,0.1583,0.1582,0.1626,0.1581,0.1606,0.1607,0.1609,0.1687,0.1695,0.1701,0,0,0,0,0,0.1577,0.1576,0.1581,0.1582,0.1581,0.1593,0.1593,0.1596,0.1592,0.16,0.1591,0.159,0.1593,0.1583,0.1582,0.1627,0.1605,0.1607,0.1609,0.1684,0.1694,0.1701,0,0,0,0,0,0,0.1573,0.1576,0.1581,0.158,0.1595,0.1594,0.1599,0.1603,0.1601,0.1605,0.159,0.159,0.1615,0.1599,0.1588,0.1637,0.1603,0.1605,0.1661,0.1669,0.1676,0.1668,0.1581,0,0,0,0,0,0.1575,0.1575,0.1586,0.1588,0.1594,0.1599,0.1605,0.1616,0.1614,0.1614,0.1609,0.1608,0.162,0.1625,0.1627,0.1645,0.1633,0.1674,0.1681,0.1687,0.1679,0.168,0.1686,0.1616,0.1616,0.1616,0,0,0.1577,0.1577,0.158,0.1588,0.1593,0.1608,0.1602,0.1621,0.1645,0.1615,0.1632,0.1633,0.1629,0.1656,0.1667,0.1649,0.171,0.169,0.1695,0.1683,0.1682,0.1689,0.1696,0.1617,0.1617,0.1616,0,0,0.1582,0.1578,0.1586,0.1597,0.162,0.1624,0.1634,0.1645,0.1662,0.1681,0.1674,0.169,0.1696,0.1707,0.1713,0.1755,0.1748,0.1767,0.1798,0.18,0.1806,0.181,0.1843,0.185,0.177,0.177,0.177,0,0.1588,0.1589,0.1592,0.1605,0.1617,0.1632,0.1652,0.1673,0.1688,0.1707,0.1698,0.1717,0.1722,0.1757,0.1779,0.1775,0.1776,0.1772,0.181,0.1814,0.1818,0.1849,0.1855,0.1774,0.1773,0.1773,0.1773,0,0.1599,0.1606,0.1609,0.1627,0.1645,0.1662,0.1695,0.1728,0.1746,0.1761,0.18,0.1796,0.1804,0.1825,0.1817,0.1857,0.1853,0.1822,0.1791,0.183,0.1861,0.1866,0.178,0.1778,0.1777,0.1776,0,0,0.1595,0.1613,0.1617,0.163,0.1658,0.1675,0.1729,0.1775,0.1807,0.1832,0.186,0.1895,0.1886,0.189,0.1889,0.1896,0.1948,0.1874,0.1872,0.1912,0.1975,0.1957,0.1961,0.1921,0.1922,0.1922,0.2,0,0.1603,0.1623,0.1636,0.1666,0.1677,0.1717,0.1758,0.1812,0.1846,0.1877,0.1903,0.1918,0.1914,0.192,0.1932,0.1935,0.1959,0.193,0.1925,0.1925,0.1909,0.1965,0.1773,0.1824,0.2005,0.2006,0.2007,0,0.1606,0.1619,0.1645,0.1683,0.1693,0.1724,0.1793,0.1831,0.1894,0.1921,0.1947,0.1949,0.1984,0.1956,0.1993,0.1974,0.1983,0.1984,0.1986,0.1936,0.1916,0.1805,0.1826,0.2015,0.2015,0.2014,0.2013,0,0.1594,0.1625,0.1643,0.1654,0.1703,0.1745,0.1779,0.1847,0.1882,0.1937,0.1954,0.1987,0.1998,0.201,0.2038,0.2011,0.2071,0.2031,0.2031,0.2031,0.1848,0.183,0.2051,0.2051,0.2051,0.2051,0.2051,0,0.1583,0.1602,0.1641,0.1655,0.1688,0.1734,0.1781,0.1833,0.1889,0.1922,0.1958,0.1993,0.2005,0.2045,0.2058,0.208,0.2095,0.2049,0.2046,0.1876,0.1861,0.1993,0.1985,0.2054,0.2053,0.2053,0.2052,0,0.1563,0.1585,0.1607,0.1662,0.168,0.1705,0.177,0.1804,0.1864,0.1909,0.1924,0.2001,0.2068,0.2098,0.2134,0.2104,0.2126,0.2131,0.1954,0.1928,0.2081,0.2077,0.2124,0.2124,0.2124,0.2124,0.2124,0,0.1553,0.1558,0.1602,0.1612,0.1638,0.168,0.1711,0.1782,0.1812,0.1923,0.1939,0.2031,0.2062,0.213,0.2114,0.2132,0.2185,0.1967,0.1871,0.2094,0.2087,0.2083,0.2078,0.1678,0.1674,0.1671,0.1669,0,0.1525,0.1541,0.1563,0.1582,0.161,0.1631,0.1683,0.1699,0.1787,0.1824,0.1898,0.1932,0.2007,0.1938,0.1975,0.1963,0.1943,0.1907,0.2173,0.1694,0.168,0.1672,0.168,0.1642,0.1645,0.1647,0.1648,0.1649,0.1508,0.1505,0.1531,0.154,0.1571,0.1584,0.158,0.1628,0.1656,0.1683,0.1784,0.1767,0.1787,0.1738,0.1714,0.1705,0.1832,0.1727,0.1733,0.1743,0.1682,0.1668,0.1619,0.1622,0.1624,0.1626,0.1627,0,0.146,0.1472,0.1485,0.15,0.1508,0.1546,0.156,0.153,0.1526,0.1548,0.1561,0.1426,0.1381,0.1447,0.1366,0.1363,0.1308,0.1331,0.1232,0.1261,0.1286,0.1198,0.1009,0.1007,0.1006,0.1004,0,0,0.1448,0.1428,0.1426,0.1423,0.1447,0.1426,0.1414,0.1376,0.1354,0.1272,0.1231,0.1284,0.1355,0.1146,0.1134,0.1059,0.1144,0.1016,0.1511,0.142,0.1442,0.1516,0.1414,0,0,0,0,0]},{"header":{"parameterUnit":"m.s-1","parameterCategory":2,"la1":30.2991,"la2":30.254,"lo1":-89.0895,"lo2":-89.0444,"dy":0.0017,"dx":0.0017,"nx":28,"ny":28,"refTime":"2023-09-28T21:00:00:Z","depth":"2","parameterNumber":3,"parameterNumberName":"V-component_of_CURRENTS"},"data":[0,0,0,0,0,0,0,0,0,0,0,0,0,0,0,0,0,0,0,0,0,0,0,0,0,0,0,0,0,0,0,0,0,0,0,0,0,0,0,0,0,0,0,0,0,0,0,0,0,0,0,0,0,0,0,0,0,0,0.0084,0.0084,0,0.0054,0.0053,0.0053,0.0029,0.0028,0.0028,0.0028,-0.0025,-0.0026,-0.0028,0,0,0,0,0,0,0,0,0,0,0,0,0,0.0089,0.0089,0.0084,0.0084,0.0084,0.0054,0.0053,0.0053,0.0029,0.0028,0.0028,0.0028,-0.0025,-0.0026,-0.0028,0,0,0,0,0,0,0,0,0,0,0,0,0,0.0074,0.0089,0.0084,0.0069,0.0067,0.0054,0.0053,0.0052,0.0029,0.0028,0.0028,0.0028,-0.0024,-0.0026,-0.0028,-0.0035,0,0,-0.0034,-0.0035,0,0,0,0,0,0,0,0,0.0075,0.0074,0.0071,0.007,0.0068,0.0046,0.0035,0.0022,0.0029,0.0042,0.0028,0.0028,-0.0003,-0.0006,-0.0013,-0.0038,-0.004,-0.0034,-0.0035,-0.0036,-0.0036,0,0,0,0,0,0,0,0.0076,0.0075,0.0071,0.0071,0.0069,0.0052,0.005,0.0032,0.002,0.0041,0.0039,0.0038,-0.0004,-0.0011,-0.0014,-0.0041,-0.0034,-0.0036,-0.0037,-0.0038,-0.0088,-0.0088,0,0,0,0,0,0,0.0084,0.0076,0.0072,0.007,0.0072,0.0052,0.005,0.0052,0.0021,0.0016,0.0038,0.0037,-0.0007,-0.0012,-0.0016,-0.0049,-0.0036,-0.0038,-0.0039,-0.0088,-0.0088,-0.0088,0,0,0,0,0,0,0.0084,0.0084,0.0073,0.0073,0.0071,0.0053,0.0055,0.0052,0.0044,0.0019,0.0014,0.0034,-0.0008,-0.0014,-0.0027,-0.0051,-0.0039,-0.004,-0.0088,-0.0088,-0.0088,-0.0101,0,0,0,0,0,0,0.0085,0.0085,0.0087,0.0074,0.0071,0.0066,0.0055,0.0051,0.0044,0.0042,0.0014,0.0009,-0.0008,-0.0024,-0.0029,-0.0053,-0.0042,-0.0087,-0.0088,-0.0088,-0.01,-0.0102,-0.0103,0,0,0,0,0,0.0085,0.009,0.0087,0.0087,0.0076,0.0066,0.0063,0.0048,0.0044,0.0041,0.0027,0.001,-0.003,-0.0025,-0.0031,-0.0057,-0.0087,-0.0088,-0.0088,-0.01,-0.0101,-0.0103,0,0,0,0,0,0,0.009,0.0087,0.0084,0.0088,0.0078,0.0062,0.0059,0.0051,0.0037,0.0035,0.0013,0.0007,-0.0017,-0.0027,-0.0021,-0.007,-0.0064,-0.0065,-0.0071,-0.0072,-0.0074,-0.0063,-0.0043,0,0,0,0,0,0.0094,0.0099,0.009,0.0092,0.0089,0.0075,0.0069,0.006,0.0048,0.0041,0.0023,0.0002,-0.0024,-0.0038,-0.0056,-0.0079,-0.0082,-0.0099,-0.0101,-0.0102,-0.0096,-0.0124,-0.0128,-0.009,-0.009,-0.009,0,0,0.0096,0.0096,0.0097,0.0093,0.0086,0.0087,0.0071,0.0064,0.0058,0.0037,0.0025,-0.0,-0.0028,-0.0056,-0.0069,-0.0069,-0.0112,-0.0102,-0.0103,-0.0097,-0.0125,-0.0129,-0.0133,-0.009,-0.009,-0.009,0,0,0.0104,0.0104,0.011,0.0106,0.0099,0.0093,0.0093,0.0079,0.0064,0.0051,0.0027,-0.0003,-0.0032,-0.0064,-0.0083,-0.0098,-0.0115,-0.0112,-0.0117,-0.0145,-0.0149,-0.0152,-0.015,-0.0153,-0.0117,-0.0117,-0.0117,0,0.0106,0.0117,0.0109,0.0114,0.0115,0.01,0.0107,0.0089,0.007,0.005,0.0049,-0.0012,-0.0036,-0.0084,-0.0095,-0.0103,-0.0111,-0.0112,-0.0147,-0.0151,-0.0154,-0.0151,-0.0154,-0.0117,-0.0117,-0.0117,-0.0117,0,0.0119,0.0128,0.0131,0.0138,0.0136,0.0139,0.0122,0.0103,0.0088,0.0065,0.0019,-0.0014,-0.005,-0.0075,-0.0092,-0.0137,-0.0131,-0.0144,-0.0145,-0.0159,-0.0154,-0.0158,-0.0118,-0.0118,-0.0118,-0.0118,0,0,0.0126,0.0139,0.014,0.0151,0.0151,0.0152,0.0134,0.011,0.0094,0.0056,0.0033,-0.0031,-0.0054,-0.0076,-0.011,-0.0144,-0.0174,-0.0156,-0.0157,-0.0155,-0.0218,-0.0182,-0.0181,-0.0201,-0.0202,-0.0203,-0.0203,0,0.014,0.0162,0.0162,0.0183,0.0196,0.0174,0.0162,0.0132,0.0104,0.0077,0.0014,-0.0011,-0.0054,-0.007,-0.0116,-0.0151,-0.0185,-0.0171,-0.0204,-0.0204,-0.0172,-0.0185,-0.0168,-0.0165,-0.0206,-0.0206,-0.0207,0,0.0155,0.0171,0.0196,0.0209,0.0211,0.0214,0.0193,0.018,0.0124,0.0099,0.0048,0.0017,-0.0038,-0.0064,-0.0145,-0.0135,-0.0178,-0.021,-0.0211,-0.0174,-0.0173,-0.016,-0.0169,-0.0212,-0.0211,-0.0211,-0.0211,0,0.0173,0.0195,0.022,0.0225,0.0233,0.0224,0.0221,0.0179,0.0174,0.0122,0.012,0.0041,0.0032,-0.005,-0.0111,-0.0132,-0.0182,-0.0217,-0.0225,-0.0222,-0.021,-0.0204,-0.0278,-0.0278,-0.0278,-0.0278,-0.0278,0,0.0193,0.0212,0.0229,0.0241,0.0261,0.0251,0.0257,0.0228,0.0209,0.0224,0.0143,0.0154,0.0033,-0.0006,-0.0089,-0.0146,-0.0163,-0.022,-0.0225,-0.0211,-0.0206,-0.025,-0.0247,-0.0278,-0.0278,-0.0278,-0.0278,0,0.0208,0.0221,0.0251,0.0265,0.0273,0.0284,0.0303,0.0304,0.0279,0.0302,0.0298,0.0247,0.0205,0.0096,-0.0006,-0.0088,-0.0164,-0.0184,-0.014,-0.014,-0.0193,-0.0191,-0.0203,-0.0202,-0.0201,-0.02,-0.02,0,0.0219,0.0237,0.0273,0.0295,0.0304,0.0326,0.0341,0.0335,0.0357,0.0377,0.0401,0.0371,0.0368,0.0236,0.0088,-0.0042,-0.0094,-0.012,-0.017,-0.0185,-0.0189,-0.0187,-0.0186,-0.0156,-0.0155,-0.0154,-0.0153,0,0.0241,0.0251,0.0274,0.0321,0.0351,0.0393,0.0424,0.0463,0.0478,0.0515,0.0578,0.0585,0.0468,0.0353,0.0168,0.0066,-0.0102,-0.0106,-0.0142,-0.017,-0.0139,-0.0142,-0.0143,-0.0146,-0.0147,-0.0147,-0.0148,-0.0148,0.0253,0.0273,0.0304,0.0348,0.039,0.0455,0.0499,0.0558,0.0632,0.0696,0.071,0.0712,0.0568,0.034,0.0187,-0.0003,-0.0014,-0.0107,-0.0111,-0.0115,-0.0103,-0.0071,-0.0061,-0.0061,-0.0062,-0.0062,-0.0062,0,0.0272,0.0292,0.0331,0.0388,0.0438,0.0461,0.0551,0.0606,0.072,0.0775,0.0829,0.0698,0.0574,0.0394,0.0136,-0.0012,-0.0058,-0.0074,-0.0102,-0.0107,-0.0112,-0.0102,-0.0059,-0.0059,-0.006,-0.006,0,0,0.0278,0.0315,0.0336,0.0418,0.0463,0.0545,0.0606,0.0703,0.0763,0.0831,0.0831,0.0812,0.0618,0.043,0.0235,0.0091,0.0016,0.0051,0.0065,0.0051,0.0047,-0.0112,-0.0098,0,0,0,0,0]}],[{"header":{"parameterUnit":"m.s-1","parameterCategory":2,"la1":30.2991,"la2":30.254,"lo1":-89.0895,"lo2":-89.0444,"dy":0.0017,"dx":0.0017,"nx":28,"ny":28,"refTime":"2023-09-28T21:00:00:Z","depth":"4","parameterNumber":2,"parameterNumberName":"U-component_of_CURRENTS"},"data":[0,0,0,0,0,0,0,0,0,0,0,0,0,0,0,0,0,0,0,0,0,0,0,0,0,0,0,0,0,0,0,0,0,0,0,0,0,0,0,0,0,0,0,0,0,0,0,0,0,0,0,0,0,0,0,0,0,0,0.0805,0.0805,0,0.0816,0.0816,0.0817,0.0848,0.0849,0.0849,0.085,0.0888,0.0889,0.0889,0,0,0,0,0,0,0,0,0,0,0,0,0,0.0791,0.0792,0.0805,0.0805,0.0805,0.0816,0.0816,0.0817,0.0848,0.0849,0.0849,0.085,0.0888,0.0889,0.0889,0,0,0,0,0,0,0,0,0,0,0,0,0,0.08,0.0792,0.0805,0.0821,0.0823,0.0816,0.0816,0.0817,0.0848,0.0849,0.0849,0.085,0.0888,0.0889,0.0889,0.0876,0,0,0.0892,0.0892,0,0,0,0,0,0,0,0,0.08,0.0801,0.0819,0.082,0.0822,0.0831,0.0825,0.0838,0.0847,0.0839,0.085,0.0851,0.087,0.0872,0.0874,0.0878,0.088,0.0892,0.0892,0.0892,0.0893,0,0,0,0,0,0,0,0.0799,0.08,0.0811,0.0819,0.0821,0.0821,0.0824,0.0828,0.0851,0.084,0.0842,0.0841,0.0872,0.0873,0.0875,0.088,0.0892,0.0892,0.0893,0.0893,0.0936,0.0937,0,0,0,0,0,0,0.0796,0.08,0.081,0.0811,0.0812,0.0821,0.0824,0.0828,0.0851,0.0854,0.0841,0.0843,0.0871,0.0874,0.0876,0.0886,0.0892,0.0893,0.0893,0.0935,0.0936,0.0937,0,0,0,0,0,0,0.0795,0.0797,0.081,0.0804,0.0806,0.082,0.0824,0.0828,0.0848,0.085,0.0855,0.086,0.0872,0.0875,0.0895,0.0887,0.0893,0.0894,0.0934,0.0936,0.0936,0.089,0,0,0,0,0,0,0.0795,0.0797,0.0808,0.0804,0.0806,0.081,0.0824,0.0827,0.0844,0.0848,0.0868,0.0871,0.0873,0.0894,0.0896,0.0888,0.0895,0.0934,0.0935,0.0936,0.089,0.0889,0.0888,0,0,0,0,0,0.0795,0.0802,0.0809,0.0811,0.0819,0.0809,0.0811,0.0824,0.0844,0.0847,0.0869,0.0872,0.0904,0.0895,0.0897,0.0889,0.0933,0.0935,0.0936,0.0891,0.0889,0.0888,0,0,0,0,0,0,0.08,0.0805,0.0813,0.0822,0.0819,0.0815,0.0823,0.0833,0.0852,0.0865,0.0876,0.088,0.0903,0.0907,0.0897,0.091,0.0921,0.0923,0.0886,0.0885,0.0883,0.0953,0.0895,0,0,0,0,0,0.0806,0.0817,0.0812,0.0821,0.0821,0.0827,0.0831,0.0837,0.0847,0.0858,0.0876,0.0896,0.0907,0.0905,0.0927,0.092,0.0952,0.0921,0.092,0.0918,0.098,0.0985,0.0989,0.0942,0.0942,0.0942,0,0,0.0811,0.0815,0.0822,0.0823,0.0827,0.0823,0.0833,0.0839,0.0835,0.0858,0.0879,0.0903,0.0912,0.0916,0.0924,0.0914,0.0945,0.0921,0.0919,0.0983,0.0987,0.0992,0.0996,0.0943,0.0943,0.0943,0,0,0.0812,0.0829,0.0834,0.0831,0.0833,0.0833,0.0838,0.0846,0.0851,0.0872,0.0886,0.0917,0.0932,0.0932,0.0932,0.0942,0.0953,0.0934,0.0962,0.0962,0.0966,0.0971,0.0994,0.1,0.0913,0.0913,0.0913,0,0.0821,0.0824,0.0832,0.0828,0.0828,0.0839,0.0835,0.0833,0.0849,0.0862,0.0884,0.0948,0.0948,0.0949,0.0959,0.0939,0.0954,0.0952,0.0959,0.0964,0.0969,0.0992,0.1,0.0911,0.0911,0.0911,0.0911,0,0.0811,0.0822,0.0823,0.0826,0.0825,0.0824,0.0818,0.0833,0.0861,0.0873,0.0919,0.0941,0.0983,0.0968,0.0973,0.0995,0.0999,0.0965,0.0957,0.0971,0.0994,0.1003,0.0908,0.0908,0.0909,0.091,0,0,0.081,0.0816,0.082,0.0821,0.0825,0.082,0.0822,0.0828,0.0842,0.0889,0.0918,0.0961,0.1006,0.1017,0.1008,0.1022,0.105,0.1018,0.1019,0.1035,0.1075,0.0997,0.0999,0.1002,0.1004,0.1005,0.1068,0,0.0802,0.0797,0.0803,0.0804,0.08,0.0814,0.0809,0.0821,0.0849,0.0878,0.0923,0.0963,0.0999,0.1023,0.1044,0.107,0.1079,0.104,0.1071,0.1074,0.0995,0.1009,0.1012,0.1075,0.1077,0.1078,0.108,0,0.0788,0.0786,0.0785,0.0791,0.0792,0.08,0.0817,0.0815,0.0849,0.0882,0.0951,0.0983,0.1053,0.1056,0.1143,0.1115,0.1119,0.1131,0.1131,0.1101,0.1014,0.1067,0.1097,0.1095,0.1094,0.1093,0.1092,0,0.0769,0.0776,0.0778,0.0778,0.0784,0.0799,0.0811,0.0834,0.0842,0.0901,0.0946,0.1014,0.1083,0.1112,0.1175,0.1155,0.1254,0.1198,0.1133,0.1127,0.1199,0.1194,0.1243,0.1243,0.1243,0.1242,0.1242,0,0.0748,0.0753,0.0779,0.0775,0.0786,0.0795,0.0815,0.084,0.0876,0.0904,0.0962,0.1005,0.111,0.1165,0.1183,0.1214,0.1255,0.1181,0.1144,0.1174,0.1166,0.1204,0.1198,0.1245,0.1244,0.1244,0.1243,0,0.0724,0.074,0.0745,0.0764,0.0779,0.079,0.0825,0.0832,0.0888,0.0931,0.0961,0.1045,0.113,0.1195,0.1258,0.1237,0.1245,0.1224,0.1293,0.1252,0.1117,0.1109,0.1169,0.1167,0.1165,0.1164,0.1162,0,0.071,0.071,0.0739,0.0747,0.0765,0.0789,0.0798,0.0844,0.0861,0.0941,0.096,0.1059,0.111,0.1155,0.1216,0.1242,0.1215,0.122,0.1161,0.1156,0.1113,0.1108,0.1102,0.116,0.1159,0.1159,0.1158,0,0.068,0.07,0.0701,0.0715,0.0738,0.0744,0.0775,0.0782,0.0838,0.0912,0.0941,0.0968,0.1056,0.111,0.1153,0.1152,0.1222,0.1201,0.1204,0.1148,0.1144,0.1103,0.1099,0.1152,0.1153,0.1153,0.1154,0,0.0664,0.066,0.0665,0.0675,0.0693,0.0679,0.0701,0.0722,0.0745,0.0847,0.0857,0.0943,0.1042,0.1061,0.1083,0.1105,0.1082,0.1042,0.1053,0.106,0.0996,0.0974,0.0925,0,0,0,0,0,0.0636,0.062,0.0618,0.0607,0.0617,0.0626,0.0668,0.0691,0.0769,0.0771,0.0809,0.0866,0.0913,0.0951,0.0953,0.1033,0.1085,0.103,0.1043,0.1118,0.1125,0.1059,0,0,0,0,0,0,0.0614,0.0611,0.0597,0.0547,0.0527,0.0524,0.0546,0.0595,0.06,0.0695,0.0726,0.0811,0.0872,0.0907,0.0935,0.0952,0.0941,0.1093,0.1091,0.1114,0.112,0.1126,0.1061,0,0,0,0,0]},{"header":{"parameterUnit":"m.s-1","parameterCategory":2,"la1":30.2991,"la2":30.254,"lo1":-89.0895,"lo2":-89.0444,"dy":0.0017,"dx":0.0017,"nx":28,"ny":28,"refTime":"2023-09-28T21:00:00:Z","depth":"4","parameterNumber":3,"parameterNumberName":"V-component_of_CURRENTS"},"data":[0,0,0,0,0,0,0,0,0,0,0,0,0,0,0,0,0,0,0,0,0,0,0,0,0,0,0,0,0,0,0,0,0,0,0,0,0,0,0,0,0,0,0,0,0,0,0,0,0,0,0,0,0,0,0,0,0,0,0.0154,0.0154,0,0.0152,0.0152,0.0152,0.0146,0.0146,0.0146,0.0146,0.0124,0.0123,0.0123,0,0,0,0,0,0,0,0,0,0,0,0,0,0.0134,0.0135,0.0154,0.0154,0.0154,0.0152,0.0152,0.0152,0.0146,0.0146,0.0146,0.0146,0.0124,0.0123,0.0123,0,0,0,0,0,0,0,0,0,0,0,0,0,0.0137,0.0135,0.0154,0.0152,0.0152,0.0152,0.0152,0.0152,0.0146,0.0146,0.0146,0.0146,0.0124,0.0123,0.0123,0.0117,0,0,0.012,0.012,0,0,0,0,0,0,0,0,0.0137,0.0138,0.0152,0.0152,0.0152,0.015,0.0137,0.014,0.0146,0.0146,0.0146,0.0146,0.0132,0.013,0.0128,0.0116,0.0115,0.012,0.0119,0.0119,0.0119,0,0,0,0,0,0,0,0.0137,0.0138,0.0152,0.0152,0.0152,0.0145,0.0146,0.0137,0.0138,0.0146,0.0146,0.0148,0.0132,0.0129,0.0128,0.0115,0.012,0.0119,0.0119,0.0118,0.0112,0.0113,0,0,0,0,0,0,0.0141,0.0138,0.0152,0.0152,0.0146,0.0146,0.0146,0.015,0.0138,0.0137,0.0148,0.0148,0.0131,0.0129,0.0127,0.0157,0.0119,0.0118,0.0118,0.0112,0.0113,0.0113,0,0,0,0,0,0,0.0141,0.0143,0.0152,0.0146,0.0147,0.0146,0.015,0.015,0.0153,0.014,0.0138,0.0153,0.013,0.0128,0.013,0.0155,0.0118,0.0117,0.0112,0.0112,0.0113,0.0194,0,0,0,0,0,0,0.014,0.0143,0.0146,0.0146,0.0147,0.016,0.015,0.015,0.0155,0.0154,0.0144,0.0141,0.013,0.0131,0.0129,0.0153,0.0116,0.0111,0.0112,0.0113,0.0191,0.0197,0.0203,0,0,0,0,0,0.014,0.0146,0.0147,0.0148,0.0153,0.0161,0.0161,0.0159,0.0155,0.0161,0.0155,0.0142,0.0134,0.0131,0.0128,0.0153,0.0111,0.0112,0.0112,0.0188,0.0196,0.0203,0,0,0,0,0,0,0.0138,0.0146,0.0147,0.0155,0.0162,0.0161,0.0164,0.0164,0.0163,0.0162,0.0148,0.0146,0.0156,0.0137,0.0135,0.015,0.0119,0.012,0.0178,0.0185,0.0191,0.0184,0.0116,0,0,0,0,0,0.0141,0.0148,0.0154,0.0162,0.0165,0.0166,0.0168,0.0169,0.0169,0.0169,0.0162,0.0154,0.0156,0.0157,0.0149,0.0158,0.013,0.0169,0.0175,0.0181,0.0172,0.0162,0.0166,0.0116,0.0116,0.0116,0,0,0.0142,0.0148,0.0152,0.0162,0.0165,0.0179,0.0167,0.0175,0.0194,0.0166,0.0183,0.0173,0.0161,0.0176,0.0179,0.0166,0.018,0.0182,0.0187,0.0174,0.0163,0.0168,0.0173,0.0116,0.0116,0.0116,0,0,0.0152,0.0154,0.0165,0.0175,0.0185,0.0188,0.0193,0.0197,0.0207,0.0218,0.021,0.0212,0.0207,0.0212,0.0212,0.0241,0.021,0.0241,0.0272,0.0264,0.0268,0.0271,0.0245,0.0246,0.0247,0.0247,0.0247,0,0.0153,0.0171,0.017,0.0187,0.02,0.0196,0.0217,0.0226,0.0233,0.0246,0.023,0.0233,0.0224,0.0254,0.0265,0.0257,0.0238,0.0253,0.0273,0.0276,0.0278,0.025,0.0249,0.0251,0.0251,0.025,0.025,0,0.0174,0.0191,0.0199,0.0221,0.0235,0.025,0.0267,0.028,0.0283,0.0292,0.0313,0.0297,0.0298,0.0303,0.0294,0.0315,0.0292,0.0283,0.026,0.0288,0.0257,0.0255,0.0257,0.0255,0.0254,0.0253,0,0,0.0172,0.0207,0.0211,0.0232,0.0256,0.0271,0.0304,0.0336,0.036,0.0359,0.0387,0.039,0.0375,0.0372,0.0364,0.0357,0.036,0.033,0.0327,0.0312,0.033,0.0284,0.0277,0.0361,0.0362,0.0362,0.0303,0,0.019,0.0229,0.0244,0.0286,0.031,0.0325,0.0361,0.0389,0.0401,0.0423,0.0419,0.0431,0.0407,0.0408,0.0401,0.0364,0.0358,0.0376,0.0296,0.0293,0.0257,0.0275,0.0362,0.0301,0.0301,0.03,0.03,0,0.0208,0.0235,0.0278,0.0331,0.0343,0.0368,0.0418,0.0449,0.0482,0.0491,0.0498,0.0485,0.048,0.0451,0.0403,0.0416,0.0378,0.0345,0.0343,0.0267,0.0244,0.0264,0.0296,0.0296,0.0296,0.0297,0.0297,0,0.021,0.0261,0.0298,0.0315,0.0369,0.0397,0.0428,0.0469,0.0501,0.0529,0.0534,0.0529,0.0515,0.0471,0.0394,0.0402,0.0325,0.033,0.0255,0.025,0.0273,0.027,0.03,0.03,0.03,0.03,0.0301,0,0.0225,0.0257,0.0303,0.0324,0.0376,0.0412,0.0463,0.0495,0.0535,0.0567,0.0565,0.0562,0.0518,0.0467,0.0404,0.0308,0.0331,0.0252,0.0234,0.0308,0.0309,0.0272,0.0269,0.0298,0.0299,0.0299,0.03,0,0.0225,0.0252,0.0297,0.0355,0.0377,0.0414,0.0481,0.0517,0.055,0.0584,0.0591,0.0583,0.0515,0.0451,0.0369,0.0313,0.0231,0.0196,0.0262,0.0249,0.0161,0.0164,0.0113,0.0111,0.0109,0.0108,0.0107,0,0.0231,0.0252,0.031,0.0335,0.0363,0.0419,0.0463,0.052,0.0554,0.0584,0.0596,0.0553,0.0531,0.0376,0.0312,0.0191,0.0177,0.0133,0.0164,0.0156,0.0143,0.0148,0.0153,0.0104,0.0103,0.0103,0.0103,0,0.0241,0.0254,0.0286,0.0334,0.0379,0.0433,0.0494,0.0517,0.0578,0.06,0.0585,0.0524,0.0449,0.0356,0.0261,0.0176,0.0159,0.0115,0.0118,0.0148,0.0144,0.0134,0.0141,0.0097,0.0097,0.0098,0.0098,0,0.0245,0.0258,0.0291,0.0333,0.0388,0.0439,0.0471,0.051,0.0547,0.0583,0.0566,0.0503,0.0479,0.0346,0.0251,0.0166,0.0155,0.0131,0.0134,0.0139,0.0164,0.0164,0.0103,0,0,0,0,0,0.0255,0.0261,0.0293,0.0339,0.0391,0.0425,0.0494,0.0523,0.0569,0.0557,0.0568,0.0497,0.0372,0.0322,0.0229,0.0219,0.0137,0.0105,0.011,0.0063,0.007,0.0091,0,0,0,0,0,0,0.026,0.0281,0.0285,0.0337,0.0367,0.0431,0.0474,0.0504,0.0501,0.0529,0.0464,0.0454,0.0334,0.0418,0.0218,0.0195,0.018,0.0058,0.0055,0.0059,0.0066,0.0071,0.0095,0,0,0,0,0]}]]